| time (UTC) | temp C | wind direction | speed KPH | gust KPH | rain 1hr cm | rain 24hr cm | rain mn cm | humidity % | barometer mb |
| 20260502213007 | 6 | 305 | 3.2 | 6.4 | 0.00 | 0.00 | 0.00 | 53 | 1015.8 |
| 20260502211506 | 6 | 305 | 1.6 | 6.4 | 0.00 | 0.00 | 0.00 | 56 | 1015.9 |
| 20260502210007 | 5 | 305 | 1.6 | 8.0 | 0.00 | 0.00 | 0.00 | 56 | 1016.0 |
| 20260502204515 | 6 | 305 | 1.6 | 4.8 | 0.00 | 0.00 | 0.00 | 54 | 1016.1 |
| 20260502203014 | 5 | 305 | 3.2 | 8.0 | 0.00 | 0.00 | 0.00 | 59 | 1016.2 |
| 20260502201506 | 5 | 345 | 1.6 | 6.4 | 0.00 | 0.00 | 0.00 | 62 | 1016.3 |
| 20260502200007 | 5 | 345 | 1.6 | 6.4 | 0.00 | 0.00 | 0.00 | 62 | 1016.5 |
| 20260502194506 | 6 | 348 | 3.2 | 6.4 | 0.00 | 0.00 | 0.00 | 61 | 1016.7 |
| 20260502193006 | 6 | 338 | 3.2 | 8.0 | 0.00 | 0.00 | 0.00 | 59 | 1016.8 |
| 20260502191512 | 6 | 322 | 3.2 | 9.7 | 0.00 | 0.00 | 0.00 | 58 | 1016.9 |
| 20260502190007 | 6 | 314 | 4.8 | 9.7 | 0.00 | 0.00 | 0.00 | 58 | 1016.9 |
| 20260502184508 | 6 | 319 | 1.6 | 9.7 | 0.00 | 0.00 | 0.00 | 57 | 1016.9 |
| 20260502183007 | 6 | 316 | 3.2 | 8.0 | 0.00 | 0.00 | 0.00 | 59 | 1017.0 |
| 20260502181506 | 7 | 311 | 3.2 | 11.3 | 0.00 | 0.00 | 0.00 | 62 | 1017.0 |
| 20260502163012 | 6 | 304 | 6.4 | 19.3 | 0.00 | 0.00 | 0.00 | 63 | 1017.2 |
| 20260502161508 | 5 | 323 | 6.4 | 19.3 | 0.00 | 0.00 | 0.00 | 65 | 1017.3 |
| 20260502151507 | 5 | 307 | 6.4 | 17.7 | 0.00 | 0.00 | 0.00 | 72 | 1017.2 |
| 20260502123008 | 3 | 317 | 3.2 | 11.3 | 0.00 | 0.00 | 0.00 | 73 | 1017.2 |
| 20260502121510 | 3 | 302 | 4.8 | 12.9 | 0.00 | 0.00 | 0.00 | 74 | 1017.0 |
| 20260502114509 | 3 | 319 | 1.6 | 8.0 | 0.00 | 0.00 | 0.00 | 81 | 1017.0 |
| 20260502113008 | 2 | 274 | 1.6 | 9.7 | 0.00 | 0.00 | 0.00 | 80 | 1016.8 |
| 20260502111508 | 2 | 289 | 1.6 | 8.0 | 0.00 | 0.00 | 0.00 | 81 | 1016.8 |
| 20260502110008 | 3 | 301 | 3.2 | 14.5 | 0.00 | 0.00 | 0.00 | 80 | 1016.7 |
| 20260502104514 | 3 | 286 | 1.6 | 14.5 | 0.00 | 0.00 | 0.00 | 81 | 1016.6 |
| 20260502103009 | 2 | 319 | 3.2 | 11.3 | 0.00 | 0.00 | 0.00 | 79 | 1016.5 |
| 20260502101508 | 2 | 292 | 3.2 | 11.3 | 0.00 | 0.00 | 0.00 | 79 | 1016.5 |
| 20260502091509 | 2 | 311 | 1.6 | 14.5 | 0.00 | 0.00 | 0.00 | 74 | 1016.3 |
| 20260502071509 | 3 | 281 | 3.2 | 12.9 | 0.00 | 0.00 | 0.00 | 70 | 1015.8 |
| 20260502070010 | 2 | 323 | 3.2 | 9.7 | 0.00 | 0.00 | 0.00 | 71 | 1015.9 |
| 20260502064517 | 3 | 296 | 3.2 | 8.0 | 0.00 | 0.00 | 0.00 | 72 | 1016.3 |
| 20260502063014 | 2 | 316 | 0.0 | 8.0 | 0.00 | 0.00 | 0.00 | 72 | 1016.3 |
| 20260502061510 | 3 | 317 | 1.6 | 9.7 | 0.00 | 0.00 | 0.00 | 73 | 1016.4 |
| 20260502060009 | 3 | 307 | 3.2 | 9.7 | 0.00 | 0.00 | 0.00 | 72 | 1016.4 |
| 20260502054509 | 3 | 316 | 1.6 | 8.0 | 0.00 | 0.00 | 0.00 | 73 | 1016.5 |
| 20260502053012 | 3 | 300 | 3.2 | 11.3 | 0.00 | 0.00 | 0.00 | 71 | 1016.4 |
| 20260502051510 | 3 | 281 | 1.6 | 11.3 | 0.00 | 0.00 | 0.00 | 72 | 1016.4 |
| 20260502050013 | 3 | 304 | 3.2 | 9.7 | 0.00 | 0.00 | 0.00 | 73 | 1016.3 |
| 20260502044509 | 2 | 316 | 0.0 | 9.7 | 0.00 | 0.00 | 0.00 | 75 | 1016.3 |
| 20260502043010 | 2 | 300 | 3.2 | 11.3 | 0.00 | 0.00 | 0.00 | 74 | 1016.4 |
| 20260502041516 | 2 | 321 | 0.0 | 4.8 | 0.00 | 0.00 | 0.00 | 75 | 1016.4 |
| 20260502040010 | 2 | 302 | 1.6 | 6.4 | 0.00 | 0.00 | 0.00 | 76 | 1016.2 |
| 20260502034510 | 2 | 305 | 1.6 | 6.4 | 0.00 | 0.00 | 0.00 | 76 | 1016.3 |
| 20260502033013 | 2 | 289 | 3.2 | 9.7 | 0.00 | 0.00 | 0.00 | 77 | 1016.3 |
| 20260502031510 | 2 | 308 | 1.6 | 11.3 | 0.00 | 0.00 | 0.00 | 78 | 1016.2 |
| 20260502030019 | 2 | 327 | 0.0 | 11.3 | 0.00 | 0.00 | 0.00 | 78 | 1016.2 |
| 20260502024510 | 2 | 329 | 3.2 | 14.5 | 0.00 | 0.00 | 0.00 | 78 | 1016.3 |
| 20260502023011 | 2 | 335 | 1.6 | 9.7 | 0.00 | 0.00 | 0.00 | 78 | 1016.3 |
| 20260502021510 | 2 | 316 | 3.2 | 11.3 | 0.00 | 0.00 | 0.00 | 79 | 1016.2 |
| 20260502020011 | 2 | 318 | 4.8 | 12.9 | 0.00 | 0.00 | 0.00 | 79 | 1016.0 |
| 20260502014510 | 2 | 321 | 4.8 | 11.3 | 0.00 | 0.00 | 0.00 | 78 | 1015.5 |
| 20260502013011 | 2 | 332 | 3.2 | 11.3 | 0.00 | 0.00 | 0.00 | 78 | 1015.7 |
| 20260502011510 | 2 | 359 | 3.2 | 22.5 | 0.00 | 0.00 | 0.00 | 78 | 1015.6 |
| 20260502010011 | 2 | 336 | 4.8 | 12.9 | 0.00 | 0.00 | 0.00 | 78 | 1015.5 |
| 20260502004511 | 2 | 327 | 4.8 | 12.9 | 0.00 | 0.00 | 0.00 | 78 | 1015.4 |
| 20260502003011 | 3 | 319 | 4.8 | 14.5 | 0.00 | 0.00 | 0.00 | 76 | 1015.3 |
| 20260502001514 | 3 | 307 | 3.2 | 14.5 | 0.00 | 0.00 | 0.00 | 76 | 1015.2 |
| 20260502000015 | 3 | 307 | 3.2 | 14.5 | 0.00 | 0.00 | 0.00 | 75 | 1015.0 |
| 20260501234511 | 3 | 19 | 3.2 | 16.1 | 0.00 | 0.00 | 0.00 | 74 | 1015.0 |
| 20260501233011 | 3 | 30 | 6.4 | 19.3 | 0.00 | 0.00 | 0.00 | 73 | 1014.9 |
| 20260501231511 | 3 | 319 | 4.8 | 16.1 | 0.00 | 0.00 | 0.00 | 73 | 1014.9 |
| 20260501230014 | 3 | 22 | 4.8 | 14.5 | 0.00 | 0.00 | 0.00 | 71 | 1014.9 |
| 20260501224511 | 3 | 18 | 6.4 | 16.1 | 0.00 | 0.00 | 0.00 | 72 | 1015.0 |
| 20260501223011 | 3 | 345 | 6.4 | 17.7 | 0.00 | 0.00 | 0.00 | 73 | 1014.9 |
| 20260501221516 | 4 | 24 | 6.4 | 20.9 | 0.00 | 0.00 | 0.00 | 73 | 1014.7 |
| 20260501220014 | 5 | 30 | 3.2 | 20.9 | 0.00 | 0.00 | 0.00 | 75 | 1014.6 |
| 20260501214512 | 3 | 354 | 6.4 | 22.5 | 0.00 | 0.00 | 0.00 | 76 | 1014.6 |